Dallas/Ft Worth, TX

7:57 AM CST on December 13, 2019 (GMT -0600)
Dallas-Fort Worth International

Weather History for KDFW - November, 2019

Change the Weather History Date:

Saturday, November 16, 2019

  Actual Average Record
Temperature  
Mean Temperature 50 °F 56 °F  
Max Temperature 64 °F 67 °F 87 °F (2016)
Min Temperature 36 °F 46 °F 24 °F (1997)
Degree Days  
Heating Degree Days 15 9  
Month to date heating degree days 220 112  
Since 1 July heating degree days 368 184  
Cooling Degree Days 0 1  
Month to date cooling degree days 4 24  
Year to date cooling degree days 3002 2747  
Moisture  
Dew Point 33 °F    
Average Humidity 54    
Maximum Humidity 76    
Minimum Humidity 34    
Precipitation  
Precipitation 0.00 in 0.08 in 3.24 in (1902)
Month to date precipitation 0.75 1.64  
Year to date precipitation 32.30 32.52  
Snow  
Snow 0.00 in 0.00 in T in (2014)
Month to date snowfall 0.0 0.0  
Since 1 July snowfall 0.0 0.0  
Since 1 September snowfall 0.0 0.0  
Snow Depth 0.00 in    
Sea Level Pressure  
Sea Level Pressure 30.15 in    
Wind  
Wind Speed 4 mph ()    
Max Wind Speed 14 mph    
Max Gust Speed 19 mph    
Visibility 10.0 miles    
Events      
T = Trace of Precipitation, MM = Missing Value Source: Averaged Metar Reports

Daily Weather History Graph

Daily Weather History Graph

Search for Another Location

Airport or City:

Astronomy

Nov. 16, 2019 Rise Set
Actual Time 6:59 AM CST 5:26 PM CST
Civil Twilight 6:33 AM CST 5:52 PM CST
Nautical Twilight 6:03 AM CST 6:22 PM CST
Astronomical Twilight 5:33 AM CST 6:51 PM CST
Moon 9:05 PM CST (11/16) 10:48 AM CST (11/16)
Length of Visible Light 11h 19m
Length of Day
10h 26m
Waning Gibbous, 82% of the Moon is Illuminated
Nov 16
Waning Gibbous
Nov 19
Last Quarter
Nov 26
New
Dec 4
First Quarter
Dec 11
Full

Hourly Weather History & Observations

Time (CST) Temp. Windchill Dew Point Humidity Pressure Visibility Wind Dir Wind Speed Gust Speed Precip Events Conditions
12:53 AM 41.0 °F 39.0 °F 30.0 °F 65% 30.26 in 10.0 mi ESE 3.5 mph - N/A   Partly Cloudy
1:53 AM 43.0 °F - 30.0 °F 60% 30.25 in 10.0 mi Calm Calm - N/A   Partly Cloudy
3:53 AM 41.0 °F - 30.9 °F 67% 30.24 in 10.0 mi Calm Calm - N/A   Partly Cloudy
4:53 AM 37.0 °F - 30.0 °F 76% 30.23 in 10.0 mi Calm Calm - N/A   Partly Cloudy
5:53 AM 37.0 °F 33.3 °F 30.0 °F 76% 30.23 in 10.0 mi SSE 4.6 mph - N/A   Partly Cloudy
6:53 AM 37.9 °F - 28.9 °F 70% 30.24 in 10.0 mi Calm Calm - N/A   Scattered Clouds
7:53 AM 39.0 °F - 30.9 °F 73% 30.25 in 10.0 mi Calm Calm - N/A   Scattered Clouds
8:53 AM 46.0 °F 44.8 °F 36.0 °F 68% 30.25 in 10.0 mi Variable 3.5 mph - N/A   Scattered Clouds
9:53 AM 53.1 °F - 35.1 °F 50% 30.25 in 10.0 mi South 10.4 mph - N/A   Mostly Cloudy
10:53 AM 57.0 °F - 35.1 °F 44% 30.22 in 10.0 mi South 8.1 mph - N/A   Mostly Cloudy
11:53 AM 59.0 °F - 34.0 °F 39% 30.19 in 10.0 mi SSE 11.5 mph - N/A   Mostly Cloudy
12:53 PM 61.0 °F - 34.0 °F 36% 30.15 in 10.0 mi SE 8.1 mph - N/A   Mostly Cloudy
1:53 PM 61.0 °F - 33.1 °F 35% 30.11 in 10.0 mi SE 9.2 mph - N/A   Mostly Cloudy
2:53 PM 61.0 °F - 34.0 °F 36% 30.09 in 10.0 mi SE 9.2 mph - N/A   Mostly Cloudy
3:53 PM 62.1 °F - 34.0 °F 35% 30.08 in 10.0 mi SE 9.2 mph - N/A   Mostly Cloudy
4:53 PM 59.0 °F - 34.0 °F 39% 30.08 in 10.0 mi SSE 8.1 mph - N/A   Mostly Cloudy
5:53 PM 55.0 °F - 34.0 °F 45% 30.08 in 10.0 mi SE 8.1 mph - N/A   Mostly Cloudy
6:53 PM 53.1 °F - 33.1 °F 47% 30.07 in 10.0 mi SE 9.2 mph - N/A   Overcast
7:53 PM 52.0 °F - 33.1 °F 49% 30.06 in 10.0 mi SSE 8.1 mph - N/A   Overcast
8:53 PM 51.1 °F - 34.0 °F 52% 30.06 in 10.0 mi SSE 10.4 mph - N/A   Mostly Cloudy
9:53 PM 50.0 °F - 35.1 °F 57% 30.06 in 10.0 mi South 9.2 mph - N/A   Mostly Cloudy
10:53 PM 48.9 °F - 35.1 °F 59% 30.04 in 10.0 mi SSE 9.2 mph - N/A   Mostly Cloudy
11:53 PM 48.0 °F - 35.1 °F 61% 30.03 in 10.0 mi SSE 8.1 mph - N/A   Mostly Cloudy